Location: Columbia, SC
(34.0000°N, 81.0300°W)
Time: 12:34:17
(UTC-04:00)

Tiangong 1 - Visible Passes

Search period start: 22 June 2017 00:00
Search period end: 02 July 2017 00:00
Orbit: 321 x 345 km, 42.8° (Epoch: 21 June)

Date Brightness Start Highest point End Pass type
(mag) Time Alt. Az. Time Alt. Az. Time Alt. Az.
22 Jun 2.1 21:52:16 10° W 21:54:56 41° NNW 21:57:36 10° NE visible
22 Jun 4.2 23:29:18 10° NW 23:30:19 14° NNW 23:30:19 14° NNW visible
23 Jun 3.4 22:12:21 10° WNW 22:14:35 21° NNW 22:16:48 10° NE visible
24 Jun 3.8 22:32:35 10° NW 22:34:17 15° N 22:36:00 10° NNE visible
25 Jun 3.4 21:15:32 10° WNW 21:17:48 21° NNW 21:20:03 10° NE visible
25 Jun 3.8 22:52:31 10° NNW 22:54:02 13° N 22:55:05 12° NNE visible
26 Jun 3.7 21:35:40 10° NW 21:37:25 15° N 21:39:10 10° NNE visible
26 Jun 3.8 23:11:52 10° NNW 23:13:19 15° N 23:13:19 15° N visible
27 Jun 3.7 21:55:32 10° NNW 21:57:04 14° N 21:58:35 10° NE visible
27 Jun 4.2 23:30:54 10° NW 23:31:27 14° NNW 23:31:27 14° NNW visible
28 Jun 3.5 22:14:49 10° NNW 22:16:39 16° N 22:18:22 11° NE visible
29 Jun 2.7 22:33:45 10° NW 22:36:07 24° NNE 22:36:23 23° NNE visible
30 Jun 3.4 21:17:35 10° NNW 21:19:26 16° N 21:21:16 10° NE visible
30 Jun 2.7 22:52:40 10° NW 22:54:21 30° NW 22:54:21 30° NW visible
01 Jul 2.7 21:36:26 10° NW 21:38:48 24° NNE 21:41:09 10° ENE visible
01 Jul 3.8 23:11:46 10° WNW 23:12:17 14° WNW 23:12:17 14° WNW visible
